Peru, IL

1:19 PM CDT on May 23, 2017 (GMT -0500)
Illinois Valley Regional-Duncan

Weather History for KVYS - May, 2013

Change the Weather History Date:

Friday, May 3, 2013

  Actual Average Record
Temperature  
Mean Temperature 50 °F -  
Max Temperature 57 °F 67 °F 86 °F (1969)
Min Temperature 42 °F 43 °F 26 °F (2005)
Degree Days  
Heating Degree Days 16    
Moisture  
Dew Point 47 °F    
Average Humidity 91    
Maximum Humidity 94    
Minimum Humidity 88    
Precipitation  
Precipitation 0.13 in - - ()
Sea Level Pressure  
Sea Level Pressure 29.98 in    
Wind  
Wind Speed 15 mph (ENE)    
Max Wind Speed 21 mph    
Max Gust Speed 23 mph    
Visibility 6 miles    
Events Rain    
Averages and records for this station are not official NWS values.
T = Trace of Precipitation, MM = Missing Value Source: NWS Daily Summary

Daily Weather History Graph

Daily Weather History Graph

Search for Another Location

Airport or City:

Trip Planner

Search our weather history database for the weather conditions in past years. The results will help you decide how hot, cold, wet, or windy it might be!

Date:

Astronomy

May. 03, 2013 Rise Set
Actual Time 5:51 AM CDT 7:56 PM CDT
Civil Twilight 5:20 AM CDT 8:26 PM CDT
Nautical Twilight 4:43 AM CDT 9:04 PM CDT
Astronomical Twilight 4:03 AM CDT 9:44 PM CDT
Moon 2:19 AM CDT (5/3) 1:47 PM CDT (5/3)
Length of Visible Light 15h 06m
Length of Day
14h 05m
Last Quarter, 37% of the Moon is Illuminated
May 3
Last Quarter
May 9
New
May 17
First Quarter
May 24
Full
May 31
Last Quarter

Hourly Weather History & Observations

Time (CDT) Temp. Windchill Dew Point Humidity Pressure Visibility Wind Dir Wind Speed Gust Speed Precip Events Conditions
12:15 AM 47.8 °F - 45.7 °F 92% 30.11 in 7.0 mi NE 12.7 mph - N/A Rain Light Rain
12:35 AM 47.8 °F - 45.5 °F 92% 30.11 in 7.0 mi NE 15.0 mph - N/A Rain Light Rain
12:55 AM 47.7 °F - 45.5 °F 92% 30.11 in 7.0 mi NE 12.7 mph - 0.01 in   Light Drizzle
1:15 AM 47.5 °F - 45.1 °F 92% 30.11 in 7.0 mi NE 10.4 mph - N/A   Light Drizzle
1:35 AM 47.3 °F - 44.6 °F 90% 30.09 in 10.0 mi NE 11.5 mph - N/A Rain Light Rain
1:55 AM 46.4 °F 40.1 °F 43.7 °F 90% 30.09 in 10.0 mi NE 15.0 mph - N/A   Light Drizzle
2:15 AM 46.4 °F 40.1 °F 43.5 °F 90% 30.08 in 10.0 mi NE 15.0 mph - N/A Rain Light Rain
2:35 AM 45.7 °F 39.1 °F 43.3 °F 92% 30.08 in 10.0 mi NNE 15.0 mph - N/A   Drizzle
2:55 AM 45.5 °F 39.6 °F 43.3 °F 92% 30.06 in 7.0 mi NNE 12.7 mph - N/A   Light Drizzle
3:15 AM 45.5 °F 40.3 °F 43.3 °F 92% 30.07 in 7.0 mi NNE 10.4 mph 17.3 mph N/A   Overcast
3:35 AM 45.1 °F 38.4 °F 43.0 °F 92% 30.07 in 10.0 mi ENE 15.0 mph 18.4 mph N/A   Overcast
3:55 AM 44.8 °F 38.0 °F 42.1 °F 90% 30.07 in 7.0 mi NE 15.0 mph - N/A   Light Drizzle
4:15 AM 44.6 °F 36.9 °F 41.9 °F 90% 30.06 in 10.0 mi NE 18.4 mph - N/A   Light Drizzle
4:35 AM 43.7 °F 36.0 °F 41.0 °F 90% 30.06 in 10.0 mi NE 17.3 mph - N/A Rain Light Rain
4:55 AM 43.7 °F 36.3 °F 41.0 °F 90% 30.05 in 10.0 mi NE 16.1 mph - N/A   Overcast
5:15 AM 43.0 °F 34.5 °F 40.3 °F 90% 30.05 in 10.0 mi NE 19.6 mph - N/A Rain Light Rain
5:35 AM 42.8 °F 35.4 °F 40.1 °F 90% 30.05 in 10.0 mi ENE 15.0 mph - 0.01 in   Drizzle
5:55 AM 42.8 °F 35.1 °F 39.9 °F 90% 30.05 in 10.0 mi NE 16.1 mph 19.6 mph 0.01 in Rain Light Rain
6:15 AM 42.4 °F 35.7 °F 39.7 °F 90% 30.05 in 10.0 mi ENE 12.7 mph - N/A   Light Drizzle
6:35 AM 42.6 °F 36.3 °F 39.9 °F 90% 30.05 in 10.0 mi ENE 11.5 mph - N/A   Light Drizzle
6:55 AM 42.6 °F 35.9 °F 40.1 °F 91% 30.05 in 7.0 mi NE 12.7 mph - 0.01 in   Light Drizzle
7:15 AM 42.8 °F 36.2 °F 40.3 °F 91% 30.04 in 7.0 mi NE 12.7 mph - N/A   Light Drizzle
7:35 AM 42.8 °F 35.4 °F 40.3 °F 91% 30.03 in 7.0 mi NE 15.0 mph - 0.01 in   Drizzle
7:55 AM 42.8 °F 34.8 °F 40.3 °F 91% 30.02 in 7.0 mi NE 17.3 mph - 0.02 in Rain Light Rain
8:15 AM 42.8 °F 36.6 °F 40.6 °F 92% 30.03 in 7.0 mi ENE 11.5 mph - N/A Rain Light Rain
8:35 AM 43.0 °F 36.0 °F 41.0 °F 93% 30.02 in 7.0 mi ENE 13.8 mph 20.7 mph 0.01 in Rain Rain
8:55 AM 43.5 °F 36.7 °F 41.2 °F 91% 30.01 in 5.0 mi NE 13.8 mph - 0.01 in   Light Drizzle
9:15 AM 44.1 °F 36.8 °F 41.9 °F 92% 30.01 in 5.0 mi ENE 16.1 mph 20.7 mph 0.01 in   Light Drizzle
9:35 AM 44.6 °F 37.8 °F 42.3 °F 91% 30.00 in 5.0 mi ENE 15.0 mph - 0.01 in   Light Drizzle
9:55 AM 44.6 °F 36.6 °F 42.4 °F 92% 29.99 in 4.0 mi ENE 19.6 mph - 0.01 in   Drizzle
10:15 AM 44.8 °F 37.4 °F 42.8 °F 93% 29.99 in 4.0 mi ENE 17.3 mph - 0.01 in Rain Light Rain
10:35 AM 45.3 °F 38.7 °F 43.3 °F 93% 29.99 in 4.0 mi East 15.0 mph 20.7 mph 0.02 in   Light Drizzle
10:55 AM 45.7 °F 39.5 °F 43.7 °F 93% 29.99 in 4.0 mi East 13.8 mph - 0.04 in Rain Light Rain
11:15 AM 46.6 °F - 44.8 °F 93% 29.99 in 4.0 mi East 15.0 mph - N/A   Light Drizzle
11:35 AM 47.3 °F - 45.3 °F 93% 29.98 in 4.0 mi East 17.3 mph 20.7 mph N/A Rain Light Rain
11:55 AM 48.0 °F - 46.0 °F 93% 29.98 in 4.0 mi East 13.8 mph - N/A   Light Drizzle
12:15 PM 48.4 °F - 46.4 °F 93% 29.97 in 4.0 mi East 17.3 mph - 0.01 in Rain Rain
12:35 PM 49.1 °F - 47.3 °F 93% 29.95 in 4.0 mi East 17.3 mph - 0.02 in   Light Drizzle
12:55 PM 50.7 °F - 48.9 °F 94% 29.95 in 4.0 mi East 18.4 mph - 0.02 in   Overcast
1:15 PM 50.9 °F - 49.1 °F 94% 29.95 in 4.0 mi East 12.7 mph 19.6 mph N/A   Overcast
1:35 PM 51.8 °F - 49.8 °F 93% 29.95 in 3.0 mi East 13.8 mph - N/A   Light Drizzle
1:55 PM 52.7 °F - 50.5 °F 92% 29.94 in 4.0 mi East 13.8 mph - N/A   Overcast
2:15 PM 53.6 °F - 51.1 °F 91% 29.93 in 3.0 mi East 16.1 mph - N/A   Overcast
2:35 PM 54.7 °F - 52.2 °F 91% 29.93 in 3.0 mi East 11.5 mph - N/A   Overcast
2:55 PM 54.7 °F - 52.3 °F 92% 29.92 in 2.5 mi ENE 16.1 mph - N/A   Overcast
3:15 PM 55.6 °F - 53.2 °F 92% 29.92 in 2.5 mi East 12.7 mph - N/A Rain Light Rain
3:35 PM 56.3 °F - 53.6 °F 91% 29.91 in 3.0 mi ENE 12.7 mph - N/A   Overcast
3:55 PM 56.3 °F - 53.8 °F 91% 29.90 in 3.0 mi East 13.8 mph 18.4 mph N/A   Overcast
4:15 PM 56.7 °F - 54.0 °F 91% 29.90 in 4.0 mi ENE 11.5 mph - N/A   Overcast
4:35 PM 56.5 °F - 53.8 °F 91% 29.91 in 4.0 mi East 16.1 mph - N/A   Overcast
4:55 PM 57.4 °F - 54.5 °F 90% 29.90 in 5.0 mi East 13.8 mph - N/A   Overcast
5:15 PM 57.4 °F - 54.1 °F 89% 29.90 in 5.0 mi East 16.1 mph - N/A   Scattered Clouds
5:35 PM 57.4 °F - 54.0 °F 88% 29.90 in 5.0 mi East 15.0 mph - N/A   Scattered Clouds
5:55 PM 57.0 °F - 53.6 °F 88% 29.89 in 7.0 mi ENE 16.1 mph - N/A   Mostly Cloudy
6:15 PM 56.7 °F - 53.2 °F 88% 29.88 in 7.0 mi ENE 12.7 mph - N/A   Mostly Cloudy
6:35 PM 56.5 °F - 53.1 °F 88% 29.88 in 7.0 mi ENE 15.0 mph - N/A   Scattered Clouds
6:55 PM 56.5 °F - 53.1 °F 88% 29.88 in 7.0 mi ENE 16.1 mph - N/A   Scattered Clouds
7:15 PM 56.3 °F - 52.9 °F 88% 29.88 in 7.0 mi ENE 15.0 mph 20.7 mph N/A   Scattered Clouds
7:35 PM 55.6 °F - 52.2 °F 88% 29.88 in 7.0 mi ENE 15.0 mph 20.7 mph N/A   Overcast
7:55 PM 55.4 °F - 52.3 °F 89% 29.88 in 7.0 mi ENE 18.4 mph 23.0 mph N/A   Overcast
8:15 PM 54.7 °F - 51.4 °F 89% 29.89 in 7.0 mi ENE 17.3 mph - N/A   Mostly Cloudy
8:35 PM 54.0 °F - 50.5 °F 88% 29.89 in 7.0 mi ENE 16.1 mph 23.0 mph N/A   Scattered Clouds
8:55 PM 53.2 °F - 50.0 °F 89% 29.89 in 7.0 mi ENE 19.6 mph - N/A   Scattered Clouds
9:15 PM 52.9 °F - 49.6 °F 89% 29.89 in 7.0 mi ENE 18.4 mph - N/A   Mostly Cloudy
9:35 PM 52.2 °F - 49.1 °F 89% 29.90 in 7.0 mi ENE 17.3 mph - N/A   Overcast
9:55 PM 52.2 °F - 49.3 °F 90% 29.90 in 5.0 mi ENE 17.3 mph 21.9 mph N/A   Scattered Clouds
10:15 PM 51.8 °F - 48.6 °F 89% 29.90 in 7.0 mi ENE 17.3 mph 23.0 mph N/A   Scattered Clouds
10:35 PM 51.3 °F - 48.4 °F 90% 29.90 in 5.0 mi ENE 16.1 mph - N/A   Clear
10:55 PM 51.3 °F - 48.4 °F 90% 29.89 in 7.0 mi ENE 17.3 mph - N/A   Clear
11:15 PM 51.3 °F - 48.4 °F 90% 29.89 in 7.0 mi ENE 19.6 mph - N/A   Clear
11:35 PM 51.6 °F - 48.6 °F 89% 29.89 in 7.0 mi East 20.7 mph - N/A   Clear
11:55 PM 51.8 °F - 48.6 °F 89% 29.92 in 7.0 mi ESE 13.8 mph - N/A   Mostly Cloudy